DELTA 1 DEB, 42078

Orbit data source: Space-Track

DELTA 1 DEB, 42078 is space debris in SSO originally from a launch on Sun, 15 Dec 1968 UTC launched from the Air Force Western Test Range (AFWTR). Debris objects in space refer to the collection of defunct objects orbiting the Earth. Examples of debris include non-operational satellites, rocket bodies, and fragments generated from explosions, collisions, or faulty payload assembly.

Loading next visibility...
Identifier
42078, 1968-114E
Orbit
SSO
Country
Flag of USUS
Related business
Manufacturer
Aerojet
Mission
Spacecraft
Bus & Motor
Unknown
Mass
Unknown
Launch date (UTC)
1968-12-15 (58 years ago)
Launch vehicle
Unknown
Launch site
Air Force Western Test Range (AFWTR)
Object type
Payload
Rocket body
Debris
Shape & HBR
Unknown shape, 0.1 m
Radar Cross Section
Small (<0.1 m²)

Expand to show TLE details & history
Last TLE update: 3 days ago

TLE from 3 days ago
0 DELTA 1 DEB
1 42078U 68114E   26170.14599317  .00000030  00000-0  48395-3 0  9991
2 42078 101.5132 129.6768 0028188 265.0950  94.6903 12.50057839223456
Epoch: 2026-06-19T03:30Z
TLE epoch observation values (Epoch: 2026-06-19T03:30:13.809Z)
Latitude
-0.00001°
Longitude
169.7401°
Altitude
1,468.705 km
Speed
7.128 km/s
True Right ascension
08h 38m 42s
True Declination
0° 00' 00"
Sunlit
Object was in daylight at epoch
Visualization orbit readout
Latitude
Unknown
Longitude
Unknown
Altitude
Unknown
Speed
Unknown
Apparent Right ascension
Unknown
Apparent Declination
Unknown
Sunlit
N/A
Visualization observer readout
Local Sidereal Time
00:55:21
Azimuth
Unknown
Elevation
Unknown
Doppler factor
Unknown
Orbital elements
Apogee altitude
1,483.885 km
Perigee altitude
1,439.687 km
Semi-major axis
7,839.923 km
Eccentricity
0.00282
Inclination
101.5132°
RAAN
129.6768°
Arg. of periapsis
265.095°
True anomaly
95.01213°
Mean anomaly
94.6903°
Eccentric anomaly
94.85123°
Mean motion
3.12662 °/min
Orbital period
115.14 mins
BSTAR
0.00048395
Loading maneuver chart data...
Computing Atmospheric mass density...
Loading historical data...
Loading historical data...
Loading historical data...
Loading historical data...
Loading historical data...
Loading historical data...
Loading historical data...

Documentation

Showing up to 5 results
|